Regional Weather Roundup
Issued by NWS

Home | Current Version | Previous Version | Graphics & Text | Print | Product List | Glossary Off
Versions: 1 2 3 4 5 6 7 8 9 10 11 12 13 14 15 16 17 18 19 20 21 22 23 24 25 26 27 28 29 30 31 32 33 34 35 36 37 38 39 40 41 42 43 44 45 46 47 48 49 50

000
ASUS43 KMKX 300511
RWRWI

WISCONSIN REGIONAL WEATHER ROUNDUP
NATIONAL WEATHER SERVICE MILWAUKEE/SULLIVAN WI
1200 AM CDT TUE JUN 30 2015

NOTE: "FAIR" INDICATES FEW OR NO CLOUDS BELOW 12,000 FEET WITH NO
SIGNIFICANT WEATHER AND/OR OBSTRUCTIONS TO VISIBILITY.

WIZ001-002-006>008-014>016-023>028-300600-
NORTHWEST WISCONSIN

CITY           SKY/WX    TMP DP  RH WIND       PRES   REMARKS
SUPERIOR ARPT  CLOUDY    60  59  97 E6        29.85R
ASHLAND        MOCLDY    60  60 100 CALM      29.85R
HAYWARD        FOG       59  58  96 CALM      29.85S VSB 1/2
SIREN          FOG       58  58  97 CALM      29.86R VSB 1/2
CUMBERLAND     CLEAR     57  55  94 CALM      29.85R FOG
RICE LAKE      PTCLDY    58  57  94 CALM      29.86R FOG
CHETEK         CLEAR     59  59  99 CALM      29.84S FOG
LADYSMITH      MOCLDY    61  59  94 NW5       29.85S
EAU CLAIRE     PTCLDY    57  55  93 CALM      29.83R FOG
MENOMONIE      CLEAR     61  60  97 CALM      29.84R FOG
NEW RICHMOND   CLEAR     59  59 100 CALM      29.85R FOG
OSCEOLA        FOG       61  61 100 CALM      29.87R VSB 1/4
$$

WIZ003>005-009-010-017-018-300600-
NORTH CENTRAL WISCONSIN

CITY           SKY/WX    TMP DP  RH WIND       PRES   REMARKS
MANITOWISH WTR MOCLDY    58  58 100 N6        29.84R
ARBOR VITAE    PTCLDY    62  60  94 N6        29.83R
WOODRUFF       PTCLDY    62  60  94 N6        29.83R
RHINELANDER    MOCLDY    60  59  96 CALM      29.82R FOG
EAGLE RIVER    CLOUDY    60  60 100 N5        29.82R
LAND O LAKES   CLOUDY    61  60  97 N10       29.84R
PHILLIPS       PTCLDY    60  59  97 N3        29.82S
TOMAHAWK       MOCLDY    56  55  97 CALM      29.82S FOG
MEDFORD        CLOUDY    57  57 100 W3        29.83S FOG
MERRILL        FOG       56  56 100 CALM      29.82R VSB 1
$$

WIZ029-030-035-036-043>047-300600-
CENTRAL WISCONSIN

CITY           SKY/WX    TMP DP  RH WIND       PRES   REMARKS
WAUSAU         CLEAR     60  58  92 NW3       29.79S
MOSINEE        NOT AVBL
MARSHFIELD     CLEAR     58  55  90 NW5       29.81S FOG
STEVENS POINT  CLEAR     58  57  96 W5        29.81S
WAUPACA        PTCLDY    60  60  99 CALM      29.79R
WAUTOMA        PTCLDY    60  60 100 W3        29.80R
WISC RAPIDS    CLEAR     59  56  89 NW5       29.82S
CAMP DOUGLAS   FOG       54  54 100 W5        29.81S VSB 1/4
$$

WIZ011>013-019>022-031-037>040-048>050-300600-
NORTHEAST WISCONSIN

CITY           SKY/WX    TMP DP  RH WIND       PRES   REMARKS
ANTIGO         PTCLDY    56  56 100 NW3       29.81R FOG
SHAWANO        MOCLDY    63  60  92 CALM      29.77S
OCONTO         CLOUDY    63  63 100 N5        29.75S
STURGEON BAY   CLOUDY    63  57  82 SE3       29.78S
GREEN BAY      CLOUDY    65  63  93 CALM      29.76S
MANITOWOC      MOCLDY    63  61  93 MISG      29.77S
APPLETON       CLOUDY    61  59  94 W7        29.78S
CLINTONVILLE   MOCLDY   N/A N/A N/A NW5       29.78R
OSHKOSH        CLOUDY    63  59  87 W5        29.77S
$$

WIZ032>034-041-042-053>061-300600-
SOUTHWEST WISCONSIN

CITY           SKY/WX    TMP DP  RH WIND       PRES   REMARKS
LA CROSSE      CLEAR     61  58  90 CALM      29.83R
SPARTA         MOCLDY    56  55  97 CALM      29.83S FOG
VIROQUA        CLEAR     59  59 100 W5        29.84R
BOSCOBEL       CLOUDY    62  60  93 CALM      29.82S FOG
PRAIRIE DU CHI CLOUDY    62  60  95 CALM      29.81S
PLATTEVILLE    CLOUDY    62  61  97 CALM      29.81F
$$

WIZ056-057-062-063-064-067-068-300600-
SOUTH CENTRAL WISCONSIN

CITY           SKY/WX    TMP DP  RH WIND       PRES   REMARKS
REEDSBURG      MOCLDY    59  59  99 CALM      29.81R
BARABOO/DELLS  MOCLDY    59  57  94 W3        29.82R FOG
LONE ROCK      CLOUDY    60  59  96 NE3       29.82R FOG
MINERAL POINT  CLOUDY    63  61  94 W5        29.81F
MADISON        CLOUDY    62  59  90 NW3       29.78F
MIDDLETON      CLOUDY    62  61  99 W5        29.80S
WATERTOWN      MOCLDY    61  61 100 SW3       29.78R
MONROE         CLOUDY    61  61 100 W10       29.80R FOG
JANESVILLE     CLOUDY    61  59  94 W3        29.78S
$$

WIZ051-052-058>065-066-070>072-300600-
SOUTHEAST WISCONSIN

CITY           SKY/WX    TMP DP  RH WIND       PRES   REMARKS
MILWAUKEE      MOCLDY    62  60  93 S7        29.77F
WAUKESHA       MOCLDY    61  61 100 CALM      29.79R
MILWAUKEE/TIMM MOCLDY    64  59  82 CALM      29.78S
RACINE         MOCLDY    63  60  90 S7        29.79S
BURLINGTON     MOCLDY    61  60  98 CALM      29.78R
KENOSHA        MOCLDY    63  60  90 S3        29.78S FOG
FOND DU LAC    CLOUDY    63  60  90 W6        29.78R
SHEBOYGAN      MOCLDY    63  60  90 W5        29.77S FOG
WEST BEND      CLOUDY    63  61  94 CALM      29.78S FOG
JUNEAU         MOCLDY    62  60  96 CALM      29.80R
$$

LSZ147-162-300600-
LAKE SUPERIOR

STATION/POSITION TIME  TEMP    WIND        PRES    WAVE
                       AIR SEA DIR/SP/G            HT/PER
                 (UTC) (F)     (DEG/KT/KT) (MB)    (FT/S)
W MID LAKE BUOY  0450   45 38   10/  8/  8 1010.8R   0
DEVILS ISLAND    0500   58      40/  4/  4 1010.9R
SAXON HARBOR     0400   61     330/  4/  7 1010.2R
$$

LMZ867-665-643>646-300600-
LAKE MICHIGAN

STATION/POSITION TIME  TEMP    WIND        PRES    WAVE
                       AIR SEA DIR/SP/G            HT/PER
                 (UTC) (F)     (DEG/KT/KT) (MB)    (FT/S)
CHAMBERS ISLAND  0400   65      CALM  /  4 1007.8S
S GREEN BAY BUOY 0430   68 71  180/  2/  4 1008.8F
N MID LAKE BUOY  0450   53 52  190/ 10/ 12 1008.2F   1/ 3
NORTHPORT PIER   0400   63     150/  6/  8 1008.1S
SISTER BAY       0444   61     170/  7/  8   N/A
ALGOMA LAKESHORE 0410          220/  8/ 10   N/A
KEWAUNEE LAKESHO 0400   60     180/  8/ 10 1007.4F
SHEBOYGAN LAKESH 0500   59     180/ 15/ 16 1007.9F
PORT WASHINGTON  0440   61     170/  8/ 10 1008.8F
ATWATER BUOY     0500   60 59  150/ 10/ 12 1009.5F
MILWAUKEE LAKESH 0400   61     160/  7/  8   N/A
KENOSHA   LAKESH 0500   62     180/  7/  9 1008.5S
$$

TC  - TEMPERATURE IN CELSIUS
VSB - VISIBILITY IN STATUTE MILES
WCI - WIND CHILL INDEX
HX  - HEAT INDEX



USA.gov is the U.S. government's official web portal to all federal, state and local government web resources and services.